When you browse on this site, cookies collect data to enhance your experience and personalize the content and advertising you see.
Visit our Privacy Policy to learn more. By continuing to use the site, you agree to this use of cookies and data.
  • In Hungary
  • List of Countries
  • For 7 days
  • Water Temperature
  • Weather Map
  • News
  • Weather Widgets
  • user-avatar
    Login

    Hourly Weather Rabat

    Today, 10 December, Tuesday

    Time Temperature Precipitation Wind Pressure Humidity
    00:00 +9°C° 0 mm 2 mps 704 mmHg 37%
    01:00 +9°C° 0 mm 2 mps 704 mmHg 37%
    02:00 +9°C° 0 mm 2 mps 704 mmHg 37%
    03:00 +9°C° 0 mm 2 mps 704 mmHg 39%
    04:00 +9°C° 0 mm 3 mps 704 mmHg 42%
    05:00 +10°C° 0 mm 2 mps 704 mmHg 47%
    06:00 +9°C° 0 mm 2 mps 704 mmHg 49%
    07:00 +9°C° 0 mm 2 mps 705 mmHg 52%
    08:00 +8°C° 0 mm 2 mps 705 mmHg 55%
    09:00 +10°C° 0 mm 2 mps 705 mmHg 51%
    10:00 +11°C° 0 mm 3 mps 706 mmHg 46%
    11:00 +12°C° 0 mm 3 mps 706 mmHg 47%
    12:00 +12°C° 0.1 mm 3 mps 706 mmHg 51%
    13:00 +11°C° 0.1 mm 4 mps 706 mmHg 55%
    14:00 +11°C° 0.1 mm 4 mps 706 mmHg 60%
    15:00 +10°C° 0.1 mm 3 mps 706 mmHg 64%
    16:00 +9°C° 0.1 mm 2 mps 706 mmHg 68%
    17:00 +9°C° 0 mm 1 mps 706 mmHg 74%
    18:00 +9°C° 0 mm 1 mps 706 mmHg 74%
    19:00 +9°C° 0 mm 1 mps 706 mmHg 75%
    20:00 +8°C° 0 mm 1 mps 706 mmHg 76%
    21:00 +8°C° 0 mm 1 mps 706 mmHg 77%
    22:00 +8°C° 0 mm 1 mps 706 mmHg 78%
    23:00 +8°C° 0 mm 1 mps 706 mmHg 79%

    Tomorrow, 11 December, Wednesday

    Time Temperature Precipitation Wind Pressure Humidity
    00:00 +7°C° 0 mm 1 mps 706 mmHg 79%
    01:00 +7°C° 0 mm 1 mps 706 mmHg 80%
    02:00 +7°C° 0 mm 1 mps 706 mmHg 80%
    03:00 +7°C° 0 mm 1 mps 705 mmHg 81%
    04:00 +7°C° 0 mm 1 mps 705 mmHg 81%
    05:00 +7°C° 0 mm 1 mps 705 mmHg 82%
    06:00 +7°C° 0 mm 1 mps 705 mmHg 80%
    07:00 +7°C° 0 mm 1 mps 705 mmHg 78%
    08:00 +7°C° 0 mm 1 mps 705 mmHg 76%
    09:00 +8°C° 0 mm 1 mps 705 mmHg 71%
    10:00 +9°C° 0 mm 1 mps 706 mmHg 67%
    11:00 +10°C° 0 mm 1 mps 706 mmHg 62%
    12:00 +10°C° 0 mm 1 mps 705 mmHg 62%
    13:00 +11°C° 0 mm 1 mps 705 mmHg 61%
    14:00 +10°C° 0 mm 2 mps 704 mmHg 61%
    15:00 +9°C° 0 mm 2 mps 704 mmHg 66%
    16:00 +8°C° 0 mm 2 mps 704 mmHg 70%
    17:00 +7°C° 0 mm 2 mps 704 mmHg 75%
    18:00 +8°C° 0 mm 1 mps 704 mmHg 75%
    19:00 +8°C° 0 mm 1 mps 703 mmHg 75%
    20:00 +7°C° 0 mm 1 mps 703 mmHg 75%
    21:00 +7°C° 0 mm 1 mps 703 mmHg 74%
    22:00 +7°C° 0 mm 1 mps 703 mmHg 73%
    23:00 +6°C° 0 mm 1 mps 703 mmHg 72%

    Day after tomorrow, 12 December, Thursday

    Time Temperature Precipitation Wind Pressure Humidity
    00:00 +6°C° 0 mm 1 mps 703 mmHg 71%
    01:00 +6°C° 0 mm 1 mps 703 mmHg 70%
    02:00 +6°C° 0 mm 1 mps 703 mmHg 69%
    03:00 +6°C° 0 mm 1 mps 702 mmHg 69%
    04:00 +6°C° 0 mm 1 mps 702 mmHg 69%
    05:00 +6°C° 0 mm 1 mps 702 mmHg 69%
    06:00 +6°C° 0 mm 1 mps 702 mmHg 69%
    07:00 +6°C° 0 mm 1 mps 703 mmHg 69%
    08:00 +6°C° 0 mm 1 mps 703 mmHg 68%
    09:00 +8°C° 0 mm 1 mps 703 mmHg 64%
    10:00 +9°C° 0 mm 1 mps 703 mmHg 59%
    11:00 +10°C° 0 mm 1 mps 703 mmHg 55%
    12:00 +10°C° 0 mm 2 mps 703 mmHg 54%
    13:00 +10°C° 0 mm 2 mps 703 mmHg 54%
    14:00 +11°C° 0 mm 3 mps 703 mmHg 54%
    15:00 +10°C° 0.2 mm 2 mps 703 mmHg 61%
    16:00 +8°C° 0.2 mm 2 mps 703 mmHg 67%
    17:00 +7°C° 0.2 mm 2 mps 703 mmHg 74%
    18:00 +7°C° 0.1 mm 2 mps 703 mmHg 76%
    19:00 +7°C° 0.1 mm 2 mps 703 mmHg 79%
    20:00 +6°C° 0.1 mm 2 mps 703 mmHg 81%
    21:00 +6°C° 0.1 mm 2 mps 703 mmHg 82%
    22:00 +6°C° 0.1 mm 2 mps 703 mmHg 83%
    23:00 +5°C° 0.1 mm 3 mps 703 mmHg 84%

    13 December, Friday

    Time Temperature Precipitation Wind Pressure Humidity
    00:00 +6°C° 0.3 mm 2 mps 703 mmHg 85%
    01:00 +6°C° 0.3 mm 2 mps 703 mmHg 86%
    02:00 +6°C° 0.3 mm 2 mps 703 mmHg 87%
    03:00 +5°C° 0.2 mm 2 mps 703 mmHg 88%
    04:00 +5°C° 0.2 mm 2 mps 703 mmHg 88%
    05:00 +5°C° 0.2 mm 2 mps 702 mmHg 89%
    06:00 +5°C° 0.9 mm 2 mps 703 mmHg 89%
    07:00 +4°C° 0.9 mm 2 mps 703 mmHg 89%
    08:00 +5°C° 0.9 mm 1 mps 703 mmHg 90%
    09:00 +5°C° 0.7 mm 2 mps 703 mmHg 89%
    10:00 +4°C° 0.7 mm 3 mps 703 mmHg 88%
    11:00 +4°C° 0.7 mm 3 mps 703 mmHg 88%
    12:00 +4°C° 0.2 mm 3 mps 702 mmHg 86%
    13:00 +5°C° 0.2 mm 4 mps 702 mmHg 85%
    14:00 +5°C° 0.2 mm 4 mps 702 mmHg 83%
    15:00 +5°C° 0.2 mm 3 mps 702 mmHg 83%
    16:00 +5°C° 0.2 mm 3 mps 702 mmHg 83%
    17:00 +4°C° 0.2 mm 3 mps 702 mmHg 83%
    18:00 +5°C° 0.1 mm 2 mps 702 mmHg 83%
    19:00 +5°C° 0.1 mm 2 mps 702 mmHg 83%
    20:00 +4°C° 0.1 mm 2 mps 702 mmHg 83%
    21:00 +4°C° 0.1 mm 2 mps 702 mmHg 84%
    22:00 +3°C° 0.1 mm 3 mps 702 mmHg 85%
    23:00 +3°C° 0.1 mm 3 mps 702 mmHg 85%

    14 December, Saturday

    Time Temperature Precipitation Wind Pressure Humidity
    00:00 +3°C° 0 mm 3 mps 702 mmHg 84%
    01:00 +4°C° 0 mm 2 mps 702 mmHg 83%
    02:00 +4°C° 0 mm 2 mps 702 mmHg 82%
    03:00 +3°C° 0 mm 2 mps 702 mmHg 82%
    04:00 +3°C° 0 mm 2 mps 701 mmHg 83%
    05:00 +3°C° 0 mm 2 mps 701 mmHg 83%
    06:00 +3°C° 0.2 mm 2 mps 701 mmHg 85%
    07:00 +2°C° 0.2 mm 3 mps 701 mmHg 87%
    08:00 +2°C° 0.2 mm 3 mps 701 mmHg 89%
    09:00 +3°C° 0.3 mm 4 mps 702 mmHg 86%
    10:00 +4°C° 0.3 mm 4 mps 702 mmHg 83%
    11:00 +3°C° 0.3 mm 5 mps 702 mmHg 80%
    12:00 +5°C° 0.3 mm 5 mps 702 mmHg 79%
    13:00 +5°C° 0.3 mm 5 mps 702 mmHg 78%
    14:00 +5°C° 0.3 mm 5 mps 702 mmHg 76%
    15:00 +3°C° 1.3 mm 5 mps 702 mmHg 82%
    16:00 +2°C° 1.3 mm 5 mps 702 mmHg 87%
    17:00 +1°C° 1.3 mm 5 mps 703 mmHg 93%
    18:00 0°C° 1.9 mm 5 mps 703 mmHg 94%
    19:00 -1°C° 1.9 mm 4 mps 704 mmHg 96%
    20:00 0°C° 1.9 mm 3 mps 705 mmHg 97%
    21:00 -1°C° 0.8 mm 3 mps 705 mmHg 96%
    22:00 -2°C° 0.8 mm 4 mps 706 mmHg 96%
    23:00 -2°C° 0.8 mm 4 mps 707 mmHg 95%

    15 December, Sunday

    Time Temperature Precipitation Wind Pressure Humidity
    00:00 -3°C° 0.2 mm 4 mps 707 mmHg 94%
    01:00 -2°C° 0.2 mm 3 mps 707 mmHg 93%
    02:00 -4°C° 0.2 mm 3 mps 708 mmHg 91%
    03:00 -4°C° 0.1 mm 3 mps 708 mmHg 91%
    04:00 -4°C° 0.1 mm 3 mps 708 mmHg 91%
    05:00 -4°C° 0.1 mm 3 mps 709 mmHg 91%
    06:00 -4°C° 0.1 mm 2 mps 709 mmHg 92%
    07:00 -4°C° 0.1 mm 2 mps 709 mmHg 93%
    08:00 -3°C° 0.1 mm 1 mps 710 mmHg 94%
    09:00 -2°C° 0 mm 1 mps 710 mmHg 91%
    10:00 -1°C° 0 mm 1 mps 710 mmHg 87%
    11:00 0°C° 0 mm 1 mps 710 mmHg 83%
    12:00 0°C° 0 mm 1 mps 710 mmHg 82%
    13:00 0°C° 0 mm 1 mps 710 mmHg 81%
    14:00 +1°C° 0 mm 1 mps 709 mmHg 80%
    15:00 -2°C° 0 mm 2 mps 710 mmHg 81%
    16:00 -3°C° 0 mm 2 mps 710 mmHg 83%
    17:00 -4°C° 0 mm 2 mps 710 mmHg 84%
    18:00 -4°C° 0 mm 2 mps 710 mmHg 82%
    19:00 -5°C° 0 mm 2 mps 710 mmHg 80%
    20:00 -5°C° 0 mm 2 mps 710 mmHg 78%
    21:00 -5°C° 0 mm 2 mps 710 mmHg 73%
    22:00 -4°C° 0 mm 2 mps 710 mmHg 68%
    23:00 -2°C° 0 mm 1 mps 709 mmHg 63%
    Show more